Terminal Aerodrome Forecast
Issued by NWS Twin Cities, MN

Home | Current Version | Previous Version | Graphics & Text | Print | Product List | Glossary On
Versions: 1 2 3 4 5 6 7 8 9 10 11 12 13 14 15 16 17 18 19 20 21 22 23 24 25 26 27 28 29
000
FTUS43 KMPX 281735
TAFMSP
TAF
KMSP 281735Z 2818/2924 03008KT P6SM OVC020
     FM282200 04005KT P6SM SCT025 OVC050
     FM290200 04003KT P6SM BKN080
     FM291400 05006KT P6SM SCT150=

USA.gov is the U.S. government's official web portal to all federal, state and local government web resources and services.